Time,TemperatureF,DewpointF,PressureIn,WindDirection,WindDirectionDegrees,WindSpeedMPH,WindSpeedGustMPH,Humidity,HourlyPrecipIn,Conditions,Clouds,dailyrainin,SoftwareType,DateUTC
2013-02-07 00:02:00,23.0,21.0,30.16,ENE,57,0.0,2.0,93,0.00,,,0.00,,2013-02-07 06:02:00,
2013-02-07 00:11:00,23.0,21.0,30.16,ENE,57,0.0,2.0,93,0.00,,,0.00,,2013-02-07 06:11:00,
2013-02-07 00:22:00,23.0,21.0,30.16,ENE,57,0.0,2.0,93,0.00,,,0.00,,2013-02-07 06:22:00,
2013-02-07 00:32:00,23.0,21.0,30.17,North,5,0.0,2.0,93,0.00,,,0.00,,2013-02-07 06:32:00,
2013-02-07 00:43:00,23.0,21.0,30.17,North,5,0.0,2.0,93,0.00,,,0.00,,2013-02-07 06:43:00,
2013-02-07 00:52:00,23.0,22.0,30.17,NE,37,1.0,3.0,94,0.00,,,0.00,,2013-02-07 06:52:00,
2013-02-07 01:01:00,23.0,22.0,30.17,East,98,0.0,4.0,94,0.00,,,0.00,,2013-02-07 07:01:00,
2013-02-07 01:11:00,23.0,22.0,30.17,East,98,0.0,4.0,94,0.00,,,0.00,,2013-02-07 07:11:00,
2013-02-07 01:22:00,23.0,22.0,30.17,ENE,66,0.0,4.0,94,0.00,,,0.00,,2013-02-07 07:22:00,
2013-02-07 01:32:00,23.0,22.0,30.17,ESE,103,0.0,1.0,94,0.00,,,0.00,,2013-02-07 07:32:00,
2013-02-07 01:42:00,23.0,22.0,30.17,ESE,103,0.0,1.0,94,0.00,,,0.00,,2013-02-07 07:42:00,
2013-02-07 01:52:00,23.0,22.0,30.17,NE,38,0.0,2.0,94,0.00,,,0.00,,2013-02-07 07:52:00,
2013-02-07 02:01:00,23.0,22.0,30.17,ESE,123,0.0,1.0,94,0.00,,,0.00,,2013-02-07 08:01:00,
2013-02-07 02:11:00,23.0,22.0,30.17,ESE,123,0.0,1.0,94,0.00,,,0.00,,2013-02-07 08:11:00,
2013-02-07 02:21:00,23.0,22.0,30.17,NE,39,0.0,2.0,94,0.00,,,0.00,,2013-02-07 08:21:00,
2013-02-07 02:32:00,23.0,21.0,30.17,East,89,0.0,3.0,93,0.00,,,0.00,,2013-02-07 08:32:00,
2013-02-07 02:42:00,23.0,21.0,30.17,East,89,0.0,3.0,93,0.00,,,0.00,,2013-02-07 08:42:00,
2013-02-07 02:52:00,23.0,21.0,30.17,NE,35,0.0,2.0,93,0.00,,,0.00,,2013-02-07 08:52:00,
2013-02-07 03:02:00,23.0,21.0,30.17,NE,35,0.0,1.0,93,0.00,,,0.00,,2013-02-07 09:02:00,
2013-02-07 03:11:00,23.0,21.0,30.17,NE,35,0.0,1.0,93,0.00,,,0.00,,2013-02-07 09:11:00,
2013-02-07 03:21:00,23.0,21.0,30.17,NE,35,0.0,1.0,93,0.00,,,0.00,,2013-02-07 09:21:00,
2013-02-07 03:32:00,23.0,21.0,30.16,NE,35,0.0,1.0,93,0.00,,,0.00,,2013-02-07 09:32:00,
2013-02-07 03:41:00,23.0,21.0,30.16,NE,35,0.0,1.0,93,0.00,,,0.00,,2013-02-07 09:41:00,
2013-02-07 03:52:00,23.0,21.0,30.16,NE,35,0.0,1.0,93,0.00,,,0.00,,2013-02-07 09:52:00,
2013-02-07 04:01:00,23.0,21.0,30.16,SE,128,0.0,2.0,93,0.00,,,0.00,,2013-02-07 10:01:00,
2013-02-07 04:11:00,23.0,21.0,30.16,SE,128,0.0,2.0,93,0.00,,,0.00,,2013-02-07 10:11:00,
2013-02-07 04:22:00,23.0,21.0,30.16,SE,124,0.0,0.0,93,0.00,,,0.00,,2013-02-07 10:22:00,
2013-02-07 04:32:00,23.0,21.0,30.17,SW,217,0.0,2.0,93,0.00,,,0.00,,2013-02-07 10:32:00,
2013-02-07 04:42:00,23.0,21.0,30.17,SW,217,0.0,2.0,93,0.00,,,0.00,,2013-02-07 10:42:00,
2013-02-07 04:51:00,23.0,21.0,30.17,SSE,167,0.0,2.0,92,0.00,,,0.00,,2013-02-07 10:51:00,
2013-02-07 05:01:00,23.0,21.0,30.17,NE,55,0.0,2.0,92,0.00,,,0.00,,2013-02-07 11:01:00,
2013-02-07 05:11:00,23.0,21.0,30.17,NE,55,0.0,2.0,92,0.00,,,0.00,,2013-02-07 11:11:00,
2013-02-07 05:22:00,23.0,21.0,30.17,NNW,347,0.0,2.0,92,0.00,,,0.00,,2013-02-07 11:22:00,
2013-02-07 05:32:00,23.0,21.0,30.17,NNW,347,0.0,1.0,92,0.00,,,0.00,,2013-02-07 11:32:00,
2013-02-07 05:44:00,23.0,21.0,30.17,NNW,347,0.0,1.0,92,0.00,,,0.00,,2013-02-07 11:44:00,
2013-02-07 05:52:00,23.0,21.0,30.17,NE,36,0.0,2.0,92,0.00,,,0.00,,2013-02-07 11:52:00,
2013-02-07 06:02:00,23.0,21.0,30.17,ENE,77,0.0,1.0,92,0.00,,,0.00,,2013-02-07 12:02:00,
2013-02-07 06:11:00,23.0,21.0,30.17,ENE,77,0.0,1.0,92,0.00,,,0.00,,2013-02-07 12:11:00,
2013-02-07 06:22:00,23.0,21.0,30.18,ENE,61,0.0,2.0,92,0.00,,,0.00,,2013-02-07 12:22:00,
2013-02-07 06:32:00,23.0,21.0,30.18,NE,42,0.0,2.0,92,0.00,,,0.00,,2013-02-07 12:32:00,
2013-02-07 06:42:00,23.0,21.0,30.18,NE,42,0.0,2.0,92,0.00,,,0.00,,2013-02-07 12:42:00,
2013-02-07 06:52:00,24.0,22.0,30.18,ENE,66,1.0,3.0,92,0.00,,,0.00,,2013-02-07 12:52:00,
2013-02-07 07:03:00,24.0,22.0,30.19,East,88,0.0,2.0,92,0.00,,,0.00,,2013-02-07 13:03:00,
2013-02-07 07:12:00,24.0,22.0,30.19,East,88,0.0,2.0,92,0.00,,,0.00,,2013-02-07 13:12:00,
2013-02-07 07:22:00,24.0,22.0,30.19,NE,49,0.0,3.0,92,0.00,,,0.00,,2013-02-07 13:22:00,
2013-02-07 07:32:00,24.0,22.0,30.19,NE,45,0.0,4.0,92,0.00,,,0.00,,2013-02-07 13:32:00,
2013-02-07 07:42:00,24.0,22.0,30.19,NE,45,0.0,4.0,92,0.00,,,0.00,,2013-02-07 13:42:00,
2013-02-07 07:52:00,24.0,22.0,30.20,ENE,65,0.0,6.0,92,0.00,,,0.00,,2013-02-07 13:52:00,
2013-02-07 08:01:00,24.0,22.0,30.20,NE,53,0.0,4.0,91,0.00,,,0.00,,2013-02-07 14:01:00,
2013-02-07 08:11:00,24.0,22.0,30.20,NE,53,0.0,4.0,91,0.00,,,0.00,,2013-02-07 14:11:00,
2013-02-07 08:21:00,24.0,22.0,30.21,NNW,338,1.0,4.0,90,0.00,,,0.00,,2013-02-07 14:21:00,
2013-02-07 08:32:00,24.0,22.0,30.21,NNW,346,1.0,4.0,90,0.00,,,0.00,,2013-02-07 14:32:00,
2013-02-07 08:42:00,24.0,22.0,30.21,NNW,346,1.0,4.0,90,0.00,,,0.00,,2013-02-07 14:42:00,
2013-02-07 08:52:00,24.0,22.0,30.22,NNE,16,0.0,5.0,90,0.00,,,0.00,,2013-02-07 14:52:00,
2013-02-07 09:02:00,24.0,21.0,30.22,NE,49,1.0,4.0,89,0.00,,,0.00,,2013-02-07 15:02:00,
2013-02-07 09:11:00,24.0,21.0,30.22,NE,49,1.0,4.0,89,0.00,,,0.00,,2013-02-07 15:11:00,
2013-02-07 09:22:00,25.0,22.0,30.22,NE,36,1.0,5.0,89,0.00,,,0.00,,2013-02-07 15:22:00,
2013-02-07 09:32:00,25.0,22.0,30.22,NNE,19,2.0,7.0,88,0.00,,,0.00,,2013-02-07 15:32:00,
2013-02-07 09:42:00,25.0,22.0,30.22,NNE,19,2.0,7.0,88,0.00,,,0.00,,2013-02-07 15:42:00,
2013-02-07 09:52:00,26.0,23.0,30.23,NE,46,2.0,4.0,87,0.00,,,0.00,,2013-02-07 15:52:00,
2013-02-07 10:01:00,26.0,22.0,30.22,NE,51,1.0,4.0,86,0.00,,,0.00,,2013-02-07 16:01:00,
2013-02-07 10:11:00,26.0,22.0,30.22,NE,51,1.0,4.0,86,0.00,,,0.00,,2013-02-07 16:11:00,
2013-02-07 10:21:00,27.0,23.0,30.23,SE,142,1.0,5.0,84,0.00,,,0.00,,2013-02-07 16:21:00,
2013-02-07 10:32:00,27.0,23.0,30.22,East,90,1.0,5.0,84,0.00,,,0.00,,2013-02-07 16:32:00,
2013-02-07 10:42:00,27.0,23.0,30.22,East,90,1.0,5.0,84,0.00,,,0.00,,2013-02-07 16:42:00,
2013-02-07 10:52:00,27.0,23.0,30.22,East,90,1.0,5.0,84,0.00,,,0.00,,2013-02-07 16:52:00,
2013-02-07 11:01:00,27.0,23.0,30.23,NE,40,2.0,8.0,83,0.00,,,0.00,,2013-02-07 17:01:00,
2013-02-07 11:11:00,27.0,23.0,30.23,NE,40,2.0,8.0,83,0.00,,,0.00,,2013-02-07 17:11:00,
2013-02-07 11:21:00,27.0,23.0,30.24,SSE,155,1.0,8.0,84,0.00,,,0.00,,2013-02-07 17:21:00,
2013-02-07 11:32:00,27.0,23.0,30.24,ENE,62,1.0,7.0,83,0.00,,,0.00,,2013-02-07 17:32:00,
2013-02-07 11:43:00,27.0,23.0,30.24,ENE,62,1.0,7.0,83,0.00,,,0.00,,2013-02-07 17:43:00,
2013-02-07 11:52:00,27.0,22.0,30.25,NE,46,1.0,9.0,82,0.00,,,0.00,,2013-02-07 17:52:00,
2013-02-07 12:01:00,28.0,23.0,30.24,NE,51,2.0,6.0,80,0.00,,,0.00,,2013-02-07 18:01:00,
2013-02-07 12:11:00,28.0,23.0,30.24,NE,51,2.0,6.0,80,0.00,,,0.00,,2013-02-07 18:11:00,
2013-02-07 12:23:00,27.0,21.0,30.24,NE,53,3.0,11.0,79,0.00,,,0.00,,2013-02-07 18:23:00,
2013-02-07 12:32:00,27.0,22.0,30.23,North,355,2.0,6.0,80,0.00,,,0.00,,2013-02-07 18:32:00,
2013-02-07 12:42:00,27.0,22.0,30.23,North,355,2.0,6.0,80,0.00,,,0.00,,2013-02-07 18:42:00,
2013-02-07 12:52:00,28.0,22.0,30.23,North,355,1.0,9.0,79,0.00,,,0.00,,2013-02-07 18:52:00,
2013-02-07 13:01:00,28.0,22.0,30.22,NE,51,2.0,8.0,79,0.00,,,0.00,,2013-02-07 19:01:00,
2013-02-07 13:11:00,28.0,22.0,30.22,NE,51,2.0,8.0,79,0.00,,,0.00,,2013-02-07 19:11:00,
2013-02-07 13:22:00,29.0,24.0,30.22,NNW,338,2.0,6.0,80,0.00,,,0.00,,2013-02-07 19:22:00,
2013-02-07 13:32:00,28.0,22.0,30.23,North,5,2.0,7.0,79,0.00,,,0.00,,2013-02-07 19:32:00,
2013-02-07 13:42:00,28.0,22.0,30.23,North,5,2.0,7.0,79,0.00,,,0.00,,2013-02-07 19:42:00,
2013-02-07 13:52:00,28.0,23.0,30.22,NE,48,3.0,8.0,80,0.00,,,0.00,,2013-02-07 19:52:00,
2013-02-07 14:01:00,28.0,23.0,30.22,NE,53,2.0,9.0,81,0.00,,,0.00,,2013-02-07 20:01:00,
2013-02-07 14:11:00,28.0,23.0,30.22,NE,53,2.0,9.0,81,0.00,,,0.00,,2013-02-07 20:11:00,
2013-02-07 14:22:00,28.0,23.0,30.22,NNE,27,2.0,10.0,82,0.00,,,0.00,,2013-02-07 20:22:00,
2013-02-07 14:31:00,28.0,24.0,30.21,NE,41,1.0,10.0,83,0.00,,,0.00,,2013-02-07 20:31:00,
2013-02-07 14:42:00,28.0,24.0,30.21,NE,41,1.0,10.0,83,0.00,,,0.00,,2013-02-07 20:42:00,
2013-02-07 14:52:00,28.0,24.0,30.21,NE,51,2.0,7.0,83,0.00,,,0.00,,2013-02-07 20:52:00,
2013-02-07 15:02:00,28.0,24.0,30.21,NNE,23,3.0,7.0,84,0.00,,,0.00,,2013-02-07 21:02:00,
2013-02-07 15:11:00,28.0,24.0,30.21,NNE,23,3.0,7.0,84,0.00,,,0.00,,2013-02-07 21:11:00,
2013-02-07 15:21:00,28.0,24.0,30.21,NE,38,2.0,8.0,85,0.00,,,0.00,,2013-02-07 21:21:00,
2013-02-07 15:32:00,28.0,24.0,30.22,NE,48,3.0,8.0,84,0.00,,,0.00,,2013-02-07 21:32:00,
2013-02-07 15:42:00,28.0,24.0,30.22,NE,48,3.0,8.0,84,0.00,,,0.00,,2013-02-07 21:42:00,
2013-02-07 15:52:00,28.0,24.0,30.22,ENE,71,3.0,9.0,84,0.00,,,0.00,,2013-02-07 21:52:00,
2013-02-07 16:02:00,28.0,24.0,30.22,NE,53,3.0,7.0,84,0.00,,,0.00,,2013-02-07 22:02:00,
2013-02-07 16:11:00,28.0,24.0,30.22,NE,53,3.0,7.0,84,0.00,,,0.00,,2013-02-07 22:11:00,
2013-02-07 16:21:00,28.0,24.0,30.22,East,98,4.0,9.0,83,0.00,,,0.00,,2013-02-07 22:21:00,
2013-02-07 16:32:00,27.0,23.0,30.22,NE,40,3.0,8.0,84,0.00,,,0.00,,2013-02-07 22:32:00,
2013-02-07 16:42:00,27.0,23.0,30.22,NE,40,3.0,8.0,84,0.00,,,0.00,,2013-02-07 22:42:00,
2013-02-07 16:51:00,27.0,23.0,30.23,NE,34,3.0,8.0,84,0.00,,,0.00,,2013-02-07 22:51:00,
2013-02-07 17:01:00,27.0,23.0,30.23,North,5,2.0,7.0,85,0.00,,,0.00,,2013-02-07 23:01:00,
2013-02-07 17:11:00,27.0,23.0,30.23,North,5,2.0,7.0,85,0.00,,,0.00,,2013-02-07 23:11:00,
2013-02-07 17:21:00,27.0,23.0,30.24,NE,42,3.0,8.0,85,0.00,,,0.00,,2013-02-07 23:21:00,
2013-02-07 17:32:00,26.0,22.0,30.24,ESE,112,1.0,5.0,85,0.00,,,0.00,,2013-02-07 23:32:00,
2013-02-07 17:42:00,26.0,22.0,30.24,ESE,112,1.0,5.0,85,0.00,,,0.00,,2013-02-07 23:42:00,
2013-02-07 17:52:00,26.0,22.0,30.25,East,89,2.0,9.0,84,0.00,,,0.00,,2013-02-07 23:52:00,
2013-02-07 18:01:00,26.0,22.0,30.25,NNE,14,2.0,9.0,84,0.00,,,0.00,,2013-02-08 00:01:00,
2013-02-07 18:11:00,26.0,22.0,30.25,NNE,14,2.0,9.0,84,0.00,,,0.00,,2013-02-08 00:11:00,
2013-02-07 18:21:00,26.0,22.0,30.26,NNE,14,1.0,7.0,84,0.00,,,0.00,,2013-02-08 00:21:00,
2013-02-07 18:32:00,26.0,22.0,30.27,NE,50,1.0,12.0,83,0.00,,,0.00,,2013-02-08 00:32:00,
2013-02-07 18:42:00,26.0,22.0,30.27,NE,50,1.0,12.0,83,0.00,,,0.00,,2013-02-08 00:42:00,
2013-02-07 18:52:00,26.0,22.0,30.27,North,5,2.0,6.0,83,0.00,,,0.00,,2013-02-08 00:52:00,
2013-02-07 19:01:00,26.0,22.0,30.28,NE,55,2.0,8.0,85,0.00,,,0.00,,2013-02-08 01:01:00,
2013-02-07 19:11:00,26.0,22.0,30.28,NE,55,2.0,8.0,85,0.00,,,0.00,,2013-02-08 01:11:00,
2013-02-07 19:21:00,26.0,23.0,30.28,East,80,2.0,7.0,88,0.00,,,0.00,,2013-02-08 01:21:00,
2013-02-07 19:31:00,25.0,22.0,30.29,NE,50,1.0,9.0,89,0.00,,,0.00,,2013-02-08 01:31:00,
2013-02-07 19:41:00,25.0,22.0,30.29,NE,50,1.0,9.0,89,0.00,,,0.00,,2013-02-08 01:41:00,
2013-02-07 19:51:00,25.0,23.0,30.29,ENE,72,3.0,7.0,91,0.00,,,0.00,,2013-02-08 01:51:00,
2013-02-07 20:01:00,25.0,23.0,30.29,ENE,74,3.0,12.0,92,0.00,,,0.00,,2013-02-08 02:01:00,
2013-02-07 20:11:00,25.0,23.0,30.29,ENE,74,3.0,12.0,92,0.00,,,0.00,,2013-02-08 02:11:00,
2013-02-07 20:21:00,25.0,23.0,30.29,East,85,1.0,5.0,92,0.00,,,0.00,,2013-02-08 02:21:00,
2013-02-07 20:32:00,25.0,23.0,30.30,NE,42,1.0,5.0,92,0.00,,,0.00,,2013-02-08 02:32:00,
2013-02-07 20:42:00,25.0,23.0,30.30,NE,42,1.0,5.0,92,0.00,,,0.00,,2013-02-08 02:42:00,
2013-02-07 20:52:00,24.0,22.0,30.30,NE,56,2.0,5.0,92,0.00,,,0.00,,2013-02-08 02:52:00,
2013-02-07 21:01:00,24.0,22.0,30.30,NE,51,1.0,4.0,92,0.00,,,0.00,,2013-02-08 03:01:00,
2013-02-07 21:12:00,24.0,22.0,30.30,NE,51,1.0,4.0,92,0.00,,,0.00,,2013-02-08 03:12:00,
2013-02-07 21:22:00,24.0,22.0,30.30,NNE,22,1.0,5.0,92,0.00,,,0.00,,2013-02-08 03:22:00,
2013-02-07 21:32:00,24.0,22.0,30.30,NE,51,1.0,5.0,91,0.00,,,0.00,,2013-02-08 03:32:00,
2013-02-07 21:41:00,24.0,22.0,30.30,NE,51,1.0,5.0,91,0.00,,,0.00,,2013-02-08 03:41:00,
2013-02-07 21:51:00,24.0,22.0,30.31,NNE,14,1.0,5.0,91,0.00,,,0.00,,2013-02-08 03:51:00,
2013-02-07 22:01:00,24.0,22.0,30.31,NE,52,0.0,2.0,91,0.00,,,0.00,,2013-02-08 04:01:00,
2013-02-07 22:11:00,24.0,22.0,30.31,NE,52,0.0,2.0,91,0.00,,,0.00,,2013-02-08 04:11:00,
2013-02-07 22:21:00,24.0,22.0,30.31,SSW,207,0.0,5.0,92,0.00,,,0.00,,2013-02-08 04:21:00,
2013-02-07 22:32:00,24.0,22.0,30.32,ENE,67,0.0,5.0,91,0.00,,,0.00,,2013-02-08 04:32:00,
2013-02-07 22:42:00,24.0,22.0,30.32,ENE,67,0.0,5.0,91,0.00,,,0.00,,2013-02-08 04:42:00,
2013-02-07 22:51:00,24.0,22.0,30.32,NE,55,1.0,3.0,91,0.00,,,0.00,,2013-02-08 04:51:00,
2013-02-07 23:02:00,24.0,22.0,30.32,NE,49,1.0,4.0,91,0.00,,,0.00,,2013-02-08 05:02:00,
2013-02-07 23:11:00,24.0,22.0,30.32,NE,49,1.0,4.0,91,0.00,,,0.00,,2013-02-08 05:11:00,
2013-02-07 23:22:00,24.0,22.0,30.33,NNE,22,0.0,6.0,90,0.00,,,0.00,,2013-02-08 05:22:00,
2013-02-07 23:32:00,24.0,22.0,30.33,NE,53,1.0,5.0,90,0.00,,,0.00,,2013-02-08 05:32:00,
2013-02-07 23:42:00,24.0,22.0,30.33,NE,53,1.0,5.0,90,0.00,,,0.00,,2013-02-08 05:42:00,
2013-02-07 23:52:00,23.0,21.0,30.34,NNW,337,1.0,5.0,90,0.00,,,0.00,,2013-02-08 05:52:00,